sat.trackr.live / text

‹ back to catalog

STARLINK-5559

NORAD 56335 · 2023-058U

PAYLOAD ACTIVE UNKNOWN

§ Identity

Operator
Country
US
Launch date
2023-04-27
Launch site
AFWTR
Launch vehicle
Mass (kg)
RCS (m²)

Purposes: comms

External: N2YO · Heavens-Above · Gunter

§ Orbital elements

Epoch: 2026-09-20T22:38:07.708992Z

Period
93.91 min
Inclination
97.2837°
Eccentricity
0.0001542
Mean motion
15.33442162 rev/d
Perigee alt
464.5 km
Apogee alt
466.6 km
Semi-major
6,843.7 km
B*
1.5215e-5
RAAN
260.7035°
Arg perigee
88.5769°
Mean anomaly
271.5651°
Rev number
18,770

§ Raw data

STARLINK-55591 56335U 23058U   26263.94314478  .00000416  00000+0  15215-4 0  99972 56335  97.2837 260.7035 0001542  88.5769 271.5651 15.33442162187709

JSON: /api/v1/satellites/56335 · /tle

For live sub-satellite position, see the globe view (requires WebGL).

§ Visibility from observer

Set your observer location to see the next 7 days of passes ≥ 10°. The values pass through the URL so the page stays shareable.

No JS? Fill the form by hand. The geolocation button needs JavaScript.